This is the latest recevied weather packets stored in our database for station/object DC4THF-13. If no packets are shown the sender has not sent any weather packets the latest 1 day(s).
| Time | Temp. | Humidity | Pressure | Rain* | Wind** | Luminosity | Snow |
|---|---|---|---|---|---|---|---|
| 1778015579 | 13.89° C | 80% | 1001.6 hPa | 0 mm | 1.79 m/s, 352° | - | - |
| 1778014975 | 14.44° C | 79% | 1001.7 hPa | 0 mm | 1.34 m/s, 332° | - | - |
| 1778013768 | 15° C | 78% | 1001.9 hPa | 0 mm | 0.89 m/s, 350° | - | - |
| 1778013164 | 15° C | 77% | 1001.9 hPa | 0 mm | 0.89 m/s, 354° | - | - |
| 1778012561 | 15° C | 77% | 1001.7 hPa | 0 mm | 0.89 m/s, 345° | - | - |
| 1778011957 | 15.56° C | 76% | 1001.8 hPa | 0 mm | 1.34 m/s, 352° | - | - |
| 1778011353 | 15.56° C | 75% | 1001.8 hPa | 0 mm | 1.34 m/s, 341° | - | - |
| 1778010749 | 15.56° C | 75% | 1001.6 hPa | 0 mm | 0.89 m/s, 333° | - | - |
| 1778010146 | 16.11° C | 75% | 1001.6 hPa | 0 mm | 1.34 m/s, 83° | - | - |
| 1778009542 | 16.11° C | 74% | 1001.6 hPa | 0 mm | 1.34 m/s, 348° | - | - |
| 1778008939 | 16.11° C | 74% | 1001.6 hPa | 0 mm | 1.34 m/s, 69° | - | - |
| 1778008395 | 16.11° C | 74% | 1001.5 hPa | 0 mm | 0.89 m/s, 63° | - | - |
| 1778007792 | 16.11° C | 74% | 1001.5 hPa | 0 mm | 0.45 m/s, 108° | - | - |
| 1778007187 | 16.67° C | 74% | 1001.5 hPa | 0 mm | 0.89 m/s, 360° | - | - |
| 1778006584 | 16.67° C | 74% | 1001.4 hPa | 0 mm | 0.89 m/s, 0° | - | - |
| 1778005981 | 16.67° C | 73% | 1001.4 hPa | 0 mm | 0.45 m/s, 13° | - | - |
| 1778005378 | 16.67° C | 72% | 1001.3 hPa | 0 mm | 0.45 m/s, 135° | - | - |
| 1778004774 | 17.22° C | 72% | 1001.2 hPa | 0 mm | 0.45 m/s, 93° | - | - |
| 1778004171 | 17.22° C | 71% | 1001.3 hPa | 0 mm | 0.45 m/s, 23° | - | - |
| 1778003568 | 17.22° C | 70% | 1001.1 hPa | 0 mm | 0.45 m/s, 36° | - | - |
| 1778002965 | 17.78° C | 66% | 1001.3 hPa | 0 mm | 0.45 m/s, 0° | - | - |
| 1778002361 | 17.78° C | 66% | 1001.3 hPa | 0 mm | 0.89 m/s, 56° | - | - |
| 1778001758 | 17.78° C | 65% | 1001.2 hPa | 0 mm | 0.45 m/s, 336° | - | - |
| 1778001155 | 18.33° C | 64% | 1001.1 hPa | 0 mm | 1.34 m/s, 356° | - | - |
| 1778000552 | 18.89° C | 63% | 1001 hPa | 0 mm | 1.34 m/s, 340° | - | - |
* Rain latest hour (hover to see other rain measurements)
** Current wind speed in m/s (hover to see current wind gust speed)